SCP
1 1 0 0 0 0 0 0 0 0 0 0 0 0 0 0 0 0 0 0 0 0 0 0 0 0 0 0 0 0 0 0 0 0 0 0 0 0 0 0 0 0 0 0 0 0 0 0 0
1 1 0 0 0 0 0 0 0 0 0 0 0 0 0 0 0 0 0 0 0 0 0 0 0 0 0 0 0 0 0 0 0 0 0 0 0 0 0 0 0 0 0 0 0 0 0 0 0
1 0 0 0 0 0 0 0 0 0 0 0 0 0 0 0 0 0 0 0 0 0 0 0 0 0 0 0 0 0 0 0 0 0 0 0 0 0 0 0 0 0 0 0 0 0 0 0 0
0 0 0 0 0 0 0 0 0 0 0 0 0 0 0 0 0 0 0 0 0 0 0 0 0 0 0 0 0 0 0 0 0 0 0 0 0 0 0 0 0 0 0 0 0 0 0 0 0
0 0 0 0 0 0 0 0 0 0 0 0 0 0 0 0 0 0 0 0 0 0 0 0 0 1 0 0 0 0 0 0 0 0 0 0 0 0 0 0 0 0 0 0 0 0 0 0 0
0 0 0 0 0 0 0 0 0 0 0 0 0 0 0 0 0 0 0 0 0 0 0 0 0 1 1 1 1 0 0 0 0 0 0 0 0 0 0 0 0 0 0 0 0 0 0 0 0
0 0 0 0 0 0 0 0 0 0 0 0 0 0 0 0 0 0 0 0 0 0 0 0 0 1 1 1 1 1 1 0 0 0 0 0 0 0 0 0 0 0 0 0 0 0 0 0 0
0 0 0 0 0 0 0 0 0 0 0 0 0 0 0 0 0 0 0 0 0 0 0 0 0 0 1 1 1 1 1 1 0 0 0 0 0 0 0 0 0 0 0 0 0 0 0 0 0
0 0 0 0 0 0 0 0 0 0 0 0 0 0 0 0 0 0 0 0 0 0 2 3 3 1 0 0 1 1 1 1 0 0 0 0 0 0 0 0 0 0 0 0 0 0 0 0 0
0 0 0 0 0 0 0 0 0 0 0 0 0 0 0 0 0 0 0 0 0 0 3 6 5 1 1 1 1 1 1 1 1 1 1 1 0 0 0 0 0 0 0 0 0 0 0 0 0
0 0 0 0 0 0 0 0 0 0 0 0 0 0 0 0 0 0 0 0 0 0 2 3 3 1 1 1 1 1 1 1 1 1 1 1 1 0 0 0 0 0 0 0 0 0 0 0 0
0 0 0 0 0 0 0 0 0 0 0 0 0 0 0 0 0 0 0 0 0 1 1 1 1 1 1 1 1 1 1 1 1 1 1 1 1 1 0 0 0 0 0 0 0 0 0 0 0
0 0 0 0 0 0 0 0 0 0 0 0 0 1 0 0 0 0 0 0 0 1 1 1 1 1 2 2 2 1 1 1 1 1 1 1 1 1 0 0 0 0 0 0 0 0 0 0 0
0 0 0 1 1 0 0 0 0 0 0 0 1 1 1 1 0 0 0 0 0 0 1 1 1 1 1 1 1 1 1 1 1 1 1 1 1 1 1 0 0 0 0 0 0 0 0 0 0
0 0 0 1 1 1 0 0 0 0 0 0 0 0 1 1 0 0 0 0 0 0 1 1 1 1 1 1 1 1 2 2 2 2 1 1 1 1 1 0 0 0 0 0 0 0 0 0 0
0 0 0 0 1 0 0 0 0 0 0 0 0 0 0 1 0 0 0 0 0 0 0 1 1 1 1 1 1 1 2 2 2 2 1 1 1 1 1 0 0 0 0 0 0 0 0 0 0
0 0 0 0 0 0 0 0 0 0 0 0 0 0 0 0 0 0 0 0 0 0 0 0 1 1 1 1 1 1 2 2 2 2 1 1 1 1 1 1 0 0 0 0 0 0 0 0 0
0 0 0 0 0 0 0 0 0 0 0 0 0 0 0 0 0 0 0 0 0 0 0 0 0 1 1 1 1 1 1 2 2 2 2 1 1 1 1 1 1 0 0 0 0 0 0 0 0
0 0 0 0 0 0 0 0 0 0 0 0 0 0 0 0 0 0 0 0 0 0 0 0 0 1 1 1 1 1 1 1 1 2 2 1 1 1 1 1 1 0 0 0 0 0 0 0 0
0 0 0 0 0 0 0 0 0 0 0 0 0 0 0 0 0 0 0 0 0 0 0 0 0 0 0 0 1 1 1 1 1 2 2 2 1 1 1 1 1 1 0 0 0 0 0 0 0
0 0 0 0 0 0 0 0 0 0 0 0 0 0 0 0 0 0 0 0 0 0 0 1 0 0 0 0 1 1 1 1 1 2 2 2 2 2 2 2 1 1 0 0 0 0 0 0 0
0 0 0 0 0 0 0 0 0 0 0 0 0 0 0 0 0 0 0 0 0 0 0 0 0 0 0 1 1 1 1 1 1 1 2 2 2 2 2 2 1 1 1 0 0 0 0 0 0
0 0 0 0 0 0 0 0 0 0 0 0 0 0 0 0 0 0 0 0 0 0 0 0 0 0 0 0 1 1 1 1 1 1 1 1 2 1 1 1 1 1 1 1 1 0 0 0 0
0 0 0 0 0 0 0 0 0 0 0 0 0 0 0 0 0 0 0 0 0 0 0 0 0 0 0 0 1 1 1 1 1 1 1 1 1 1 1 1 1 1 1 1 1 0 0 0 0
0 0 0 0 0 0 0 0 0 0 0 0 0 0 0 0 0 0 0 0 0 0 0 0 0 0 0 0 1 1 0 0 1 1 1 1 1 1 1 1 1 1 1 1 0 0 0 0 0
0 0 0 0 0 0 0 0 0 0 0 0 0 0 0 0 0 0 0 0 0 0 0 0 0 0 0 0 0 0 0 0 0 1 1 1 1 1 1 1 0 0 0 0 0 0 0 0 0
0 0 0 0 0 0 0 0 0 0 0 0 0 0 0 0 0 0 0 0 0 0 0 0 0 0 0 0 0 0 0 0 0 1 1 1 1 1 1 0 0 0 0 0 0 0 0 0 0
0 0 0 0 0 0 0 0 0 0 0 0 0 0 0 0 0 0 0 0 0 0 0 0 0 0 0 0 0 0 0 0 0 0 0 1 1 0 0 0 0 0 0 0 0 0 0 0 0
0 0 0 0 0 0 0 0 0 0 0 0 0 0 0 0 0 0 0 0 0 0 0 0 0 0 0 0 0 0 0 0 0 0 0 0 0 0 0 0 0 0 0 0 0 0 0 0 0
0 0 0 0 0 0 0 0 0 0 0 0 0 0 0 0 0 0 0 0 0 0 0 0 0 0 0 0 0 0 0 0 0 0 0 0 0 0 0 0 0 0 0 0 0 0 0 0 0
Wind_Speed
2 5 3 3 6 6 3 3 2 2 3 2 3 5 6 4 2 1 2 8 10 9 7 10 12 11 11 11 10 10 10 10 10 10 10 10 10 10 9 9 8 8 8 7 7 7 7 7 7
3 4 3 5 7 4 3 3 1 1 3 3 4 5 5 4 3 5 5 6 11 10 7 8 12 12 11 10 10 10 10 10 9 9 9 9 9 9 8 8 8 8 7 7 6 6 6 6 6
4 2 4 5 4 3 1 1 1 3 3 2 4 4 4 2 4 4 5 9 10 8 6 8 13 12 11 10 10 10 10 9 9 9 9 8 8 8 8 7 7 7 7 6 6 5 5 6 6
3 4 5 6 3 1 2 2 3 3 3 5 4 4 3 2 5 5 10 11 10 7 6 8 13 12 11 11 10 10 10 9 9 9 8 8 8 7 7 7 7 6 6 5 5 5 5 5 5
4 4 7 5 4 3 1 0 1 3 3 4 4 4 3 4 6 11 11 10 9 7 6 7 13 12 11 11 10 10 10 9 9 8 8 8 7 7 6 6 6 5 5 5 4 4 4 4 4
4 5 6 3 5 4 4 3 2 3 3 3 4 4 3 2 6 9 9 8 7 7 6 6 12 12 12 11 11 10 10 10 9 9 8 7 7 7 6 5 5 4 4 4 3 3 3 4 4
4 5 4 2 4 5 6 4 3 3 3 2 3 4 2 1 3 8 6 6 5 5 5 4 5 8 11 12 11 11 11 10 9 9 8 7 7 6 6 5 4 4 3 3 2 2 3 3 3
4 5 4 2 2 4 7 4 4 4 3 3 4 4 2 3 5 6 6 5 4 3 4 4 4 4 4 6 11 12 11 11 10 9 9 8 7 6 6 5 4 4 3 2 1 2 2 3 3
4 6 2 0 1 2 6 5 5 5 6 5 5 2 1 7 8 6 4 3 2 4 3 4 4 4 4 4 8 10 11 11 10 8 10 7 3 2 3 4 5 4 3 3 1 0 2 3 4
5 4 2 2 2 2 8 9 8 8 10 9 9 10 9 9 7 5 3 3 4 5 4 3 4 4 4 5 4 3 4 4 4 3 4 3 3 2 3 4 6 6 5 3 2 1 2 3 2
3 3 1 2 3 4 8 13 14 8 10 9 6 8 9 9 6 4 1 1 3 4 4 5 5 5 5 4 3 2 2 2 3 4 4 3 3 2 2 1 2 3 3 1 1 1 1 1 0
4 4 4 4 6 8 9 7 12 18 9 9 11 11 12 10 8 7 6 5 4 3 4 4 4 5 6 5 3 3 3 3 3 4 5 4 3 3 2 2 2 2 1 1 1 1 1 1 1
4 4 8 11 16 16 17 14 11 15 12 13 16 18 15 13 11 9 8 8 8 6 5 4 4 5 5 5 4 5 5 5 5 4 5 5 4 4 3 3 2 3 2 2 2 2 2 2 2
4 8 8 9 11 10 18 14 10 12 12 15 18 16 14 14 13 13 13 12 10 9 8 5 4 5 5 5 5 5 5 5 5 5 6 7 5 4 4 4 3 3 3 3 3 3 2 2 2
5 7 8 7 5 4 10 15 13 11 11 15 15 13 14 13 13 13 12 11 10 9 8 7 5 3 4 6 6 6 5 5 6 6 7 8 7 6 5 4 4 4 3 3 2 2 2 2 1
4 5 5 6 7 6 10 9 11 10 11 13 12 11 12 12 12 11 11 10 10 10 9 8 7 6 4 4 5 5 5 6 6 6 6 9 9 8 6 5 5 4 3 3 3 2 2 2 1
6 4 3 5 11 7 10 8 8 9 11 12 12 11 11 12 13 12 12 10 10 9 9 9 8 7 6 5 5 5 5 6 6 6 6 7 9 9 6 6 5 4 4 4 4 2 2 2 2
1 3 4 5 7 12 13 9 8 10 12 12 11 11 11 12 12 12 11 10 9 9 8 8 8 8 7 5 4 3 4 5 5 5 6 7 7 8 7 5 6 4 4 4 3 3 2 2 3
4 5 5 4 4 8 10 9 8 9 12 14 13 12 12 11 10 10 10 10 9 10 9 9 8 8 6 4 3 3 3 4 4 5 7 8 7 8 7 6 5 5 5 5 5 3 3 2 2
6 6 4 5 6 7 7 7 5 7 10 9 10 11 11 13 13 13 12 11 11 10 10 9 8 8 7 5 4 3 4 3 3 3 5 7 7 8 8 7 5 5 4 5 5 4 3 2 3
4 3 2 4 4 5 3 3 5 5 5 9 10 9 10 12 14 14 13 12 12 11 10 9 9 8 7 7 4 4 3 2 2 2 3 4 6 6 6 7 6 5 5 5 5 5 5 3 2
1 2 1 5 5 2 2 0 5 6 7 11 12 11 12 12 12 12 12 13 12 11 10 9 9 8 7 7 5 5 3 3 3 2 2 2 4 5 5 5 6 6 5 5 5 5 3 4 3
2 3 3 4 5 4 6 3 4 6 8 12 12 12 12 12 12 12 11 11 10 10 9 9 8 8 8 7 6 5 4 3 3 2 2 2 2 3 4 5 5 5 5 6 6 5 5 4 4
2 4 6 6 6 5 4 2 4 5 8 11 11 12 12 12 12 12 11 10 9 10 9 8 8 8 8 7 7 6 6 5 3 2 1 1 1 2 3 4 4 4 5 6 7 6 7 5 5
8 6 4 5 6 2 3 3 2 5 6 7 10 11 11 11 11 11 12 12 11 12 11 10 9 9 9 8 7 7 6 5 4 2 1 1 1 1 2 3 3 3 4 4 5 5 5 5 5
4 5 5 3 1 1 3 2 4 5 6 6 7 8 10 11 10 11 11 11 11 11 11 11 10 9 9 8 7 7 6 4 3 3 1 1 0 1 1 2 2 3 3 4 4 4 4 4 5
3 4 3 6 3 2 2 3 4 4 7 8 9 10 11 11 11 11 11 11 11 11 11 10 10 9 9 9 8 7 7 6 5 4 3 2 1 1 1 2 2 2 2 3 4 3 3 3 4
5 4 5 5 3 1 2 2 4 7 9 10 10 11 11 10 10 10 10 10 10 9 9 10 9 9 8 9 8 7 8 8 7 6 6 4 3 2 2 2 2 2 2 2 2 2 2 3 2
4 4 6 5 3 4 0 3 4 5 6 8 9 9 9 10 9 8 8 8 9 9 9 9 9 9 9 9 8 8 8 8 8 7 7 6 5 4 4 3 3 2 2 2 2 2 2 3 2
3 3 4 4 2 3 2 5 5 4 5 6 7 8 8 8 7 7 7 7 8 9 9 9 9 9 9 8 8 8 8 9 9 8 8 7 6 6 5 4 3 3 2 2 2 2 2 3 3
Wind_Direction
147 121 104 68 53 48 30 339 310 23 51 41 63 81 97 103 151 169 122 138 136 142 149 150 150 147 145 141 136 132 128 126 125 124 123 124 125 126 127 127 125 123 122 120 119 118 119 114 110
139 131 78 61 76 60 342 316 356 30 128 130 70 73 72 64 68 105 131 144 141 143 142 148 153 152 151 147 144 139 135 133 130 127 125 125 124 124 126 125 123 122 120 119 119 119 118 115 107
153 122 82 67 82 136 197 282 108 72 87 84 71 62 76 93 123 140 151 144 141 142 141 156 156 157 157 153 151 147 143 141 137 133 129 127 126 127 126 125 124 121 119 119 117 118 118 116 109
119 55 54 64 52 248 236 229 156 119 66 54 80 60 55 84 145 143 138 145 144 143 144 162 161 163 162 160 160 157 153 150 146 143 139 136 132 129 129 129 127 125 122 120 117 115 116 113 107
69 74 55 43 2 330 337 307 115 91 59 47 73 75 37 15 108 128 141 150 150 148 152 167 167 170 170 168 168 166 163 161 158 155 151 148 145 141 138 135 134 133 129 121 115 112 110 105 96
61 63 67 28 344 350 15 9 55 76 78 70 75 78 30 76 120 139 145 148 151 154 157 169 176 177 179 178 176 176 174 172 172 169 165 162 157 153 148 142 139 138 133 124 107 97 101 94 88
92 81 88 49 353 11 1 359 54 74 78 83 94 84 44 120 141 137 135 134 143 156 160 175 181 184 187 187 187 186 185 185 183 182 179 175 172 168 164 160 158 153 144 134 107 81 81 78 75
107 94 75 44 32 360 334 6 57 51 63 66 73 113 180 201 129 115 111 116 137 160 175 183 188 187 191 195 198 196 196 195 194 192 190 188 187 186 185 180 182 182 176 166 131 70 57 61 58
79 74 90 169 102 357 349 27 36 46 64 48 45 64 148 122 111 101 97 105 157 193 201 197 199 198 195 201 210 204 205 204 202 200 200 194 188 192 200 202 207 212 209 202 193 58 34 50 43
70 101 167 165 133 82 41 38 20 38 37 23 25 35 72 98 103 110 126 169 202 216 216 211 208 205 201 211 213 210 207 205 201 192 198 178 173 195 210 229 228 228 229 233 237 277 25 54 40
74 124 128 76 96 70 64 54 36 46 31 6 13 46 63 69 62 49 15 267 241 238 228 219 214 208 205 217 215 207 203 198 196 194 192 181 182 201 214 218 255 263 258 273 321 1 43 63 36
78 54 62 50 65 56 59 57 53 44 30 22 48 55 56 53 42 27 11 351 330 304 269 248 224 214 214 216 222 211 207 205 202 199 193 185 191 204 209 211 222 233 233 232 247 257 283 274 255
76 85 72 77 79 79 74 63 66 36 31 42 51 48 43 40 32 22 19 13 5 350 327 290 246 227 223 220 225 219 213 213 210 203 199 195 199 208 212 218 216 219 212 215 232 246 265 278 274
90 93 83 71 79 76 75 55 48 22 26 43 46 43 38 34 28 23 18 13 6 357 345 328 282 241 229 229 230 228 218 213 208 207 205 202 205 207 211 221 220 217 209 208 215 231 245 263 259
101 98 72 40 53 100 80 49 31 17 29 41 40 36 34 29 26 21 11 4 356 350 347 345 334 309 255 242 239 238 226 217 215 212 206 205 206 207 207 214 222 220 200 199 211 229 221 236 232
60 70 63 30 21 46 78 63 18 17 34 38 32 28 27 23 21 14 8 1 356 351 348 345 347 345 314 277 254 241 231 220 220 214 206 206 208 206 203 209 222 214 188 182 195 200 197 211 203
37 67 65 37 20 53 78 79 28 21 37 36 26 19 17 14 12 7 1 356 353 349 344 344 346 344 327 301 271 249 237 229 222 215 207 207 209 206 201 209 219 200 185 187 198 182 180 190 194
62 87 74 66 46 72 85 83 46 28 35 32 22 15 11 8 2 355 353 351 348 343 341 342 343 343 334 317 295 268 247 236 225 217 213 205 204 203 199 206 211 197 188 190 185 177 176 181 176
98 98 94 92 109 77 86 81 48 30 31 24 16 10 5 356 349 350 350 350 349 347 347 343 341 338 338 332 320 294 265 250 233 219 210 200 193 193 195 204 201 193 194 195 182 164 164 161 137
83 90 84 86 100 101 105 84 49 32 31 19 9 1 356 350 351 351 350 351 350 346 344 339 337 333 331 321 303 280 274 266 251 235 218 206 198 193 195 194 191 188 189 186 179 162 155 160 156
60 100 143 138 92 87 117 67 20 6 9 11 11 360 357 353 347 344 346 345 345 345 342 336 330 330 329 326 314 305 292 284 270 244 227 213 200 197 194 187 182 181 184 188 186 176 164 168 178
12 354 162 146 121 72 9 107 356 337 348 1 1 355 352 348 344 341 341 342 341 339 337 334 329 330 333 333 329 318 304 290 280 272 251 222 197 190 187 183 179 179 179 180 187 180 173 162 174
325 8 68 107 110 75 22 59 328 338 352 347 345 347 346 344 342 340 338 336 335 337 339 338 334 337 339 341 339 328 313 295 294 277 249 232 204 184 175 181 178 181 182 181 182 178 180 180 177
5 69 59 56 70 57 349 41 340 340 328 327 332 337 338 339 341 340 339 340 340 342 342 345 345 344 345 347 349 345 336 330 332 316 266 225 191 171 170 177 182 187 189 188 189 186 187 189 183
41 72 44 22 33 21 337 64 309 298 311 315 319 325 331 335 340 341 345 346 346 349 350 350 349 349 350 351 354 351 346 344 346 335 296 228 181 184 184 175 180 182 188 188 182 183 190 186 183
41 91 127 148 163 302 7 9 278 285 305 314 318 323 337 340 341 342 346 349 349 352 354 354 354 353 353 357 357 359 359 355 350 351 353 14 111 174 175 163 162 170 174 173 170 173 183 180 187
69 64 121 116 107 70 343 317 310 324 335 339 341 343 344 341 342 346 347 350 351 353 355 356 357 0 0 2 2 8 8 8 8 9 20 31 33 59 108 141 146 154 160 161 158 166 174 175 187
91 113 81 85 112 56 332 329 304 317 325 331 336 337 335 338 343 345 347 347 349 350 350 358 2 5 3 6 10 13 10 11 16 23 28 33 36 42 76 98 114 125 124 142 145 152 163 173 186
24 59 81 86 111 133 347 294 249 272 296 311 317 322 326 331 334 337 341 345 349 353 358 2 4 7 8 7 8 12 12 13 20 25 25 26 30 36 41 59 86 97 100 105 129 155 168 175 185
92 94 128 122 108 113 139 273 279 281 292 299 307 315 322 327 333 335 339 344 350 355 358 1 3 6 6 7 11 14 15 17 20 20 19 23 27 29 36 42 55 68 73 80 98 119 126 143 164